QPF
0.01 0.00 0.00 0.00 0.00 0.00 0.00 0.01 0.01 0.02 0.02 0.02 0.01 0.02 0.03 0.05 0.04 0.03 0.05 0.05 0.06 0.04 0.03 0.04 0.04 0.04 0.04 0.03 0.03 0.04 0.04 0.04 0.04 0.05 0.04 0.04 0.05 0.05 0.05 0.04 0.03 0.04 0.05 0.05
0.01 0.00 0.00 0.00 0.00 0.01 0.01 0.00 0.01 0.01 0.01 0.01 0.01 0.03 0.04 0.04 0.03 0.03 0.03 0.04 0.07 0.03 0.02 0.03 0.04 0.04 0.04 0.04 0.03 0.03 0.04 0.03 0.04 0.03 0.03 0.03 0.03 0.03 0.03 0.02 0.03 0.04 0.06 0.05
0.02 0.00 0.00 0.01 0.01 0.00 0.01 0.01 0.01 0.02 0.02 0.02 0.04 0.05 0.05 0.03 0.03 0.03 0.02 0.02 0.02 0.01 0.01 0.02 0.03 0.04 0.04 0.03 0.03 0.02 0.02 0.02 0.02 0.02 0.02 0.02 0.02 0.02 0.02 0.03 0.04 0.05 0.06 0.06
0.04 0.02 0.03 0.02 0.01 0.00 0.00 0.00 0.00 0.01 0.01 0.02 0.03 0.03 0.03 0.03 0.02 0.03 0.02 0.02 0.01 0.01 0.02 0.02 0.03 0.03 0.03 0.02 0.02 0.02 0.01 0.01 0.02 0.02 0.02 0.02 0.02 0.02 0.02 0.03 0.04 0.05 0.06 0.05
0.05 0.04 0.03 0.02 0.01 0.00 0.00 0.01 0.01 0.01 0.01 0.01 0.01 0.01 0.01 0.00 0.01 0.02 0.02 0.01 0.01 0.01 0.02 0.02 0.02 0.02 0.02 0.02 0.02 0.01 0.01 0.01 0.01 0.02 0.02 0.01 0.01 0.01 0.03 0.03 0.03 0.04 0.05 0.06
0.04 0.06 0.07 0.05 0.02 0.01 0.01 0.02 0.02 0.01 0.02 0.02 0.01 0.01 0.01 0.00 0.01 0.02 0.02 0.01 0.01 0.03 0.02 0.02 0.02 0.02 0.03 0.02 0.02 0.01 0.00 0.00 0.00 0.01 0.01 0.01 0.01 0.02 0.02 0.03 0.03 0.03 0.04 0.04
0.06 0.07 0.08 0.04 0.02 0.02 0.05 0.05 0.03 0.04 0.04 0.04 0.03 0.02 0.02 0.02 0.01 0.02 0.03 0.02 0.01 0.03 0.04 0.03 0.02 0.01 0.02 0.02 0.01 0.00 0.00 0.00 0.00 0.01 0.01 0.01 0.02 0.02 0.02 0.02 0.03 0.04 0.04 0.05
0.07 0.09 0.10 0.05 0.04 0.03 0.05 0.03 0.03 0.04 0.03 0.03 0.04 0.02 0.02 0.03 0.02 0.03 0.03 0.03 0.01 0.01 0.02 0.02 0.02 0.01 0.01 0.01 0.00 0.00 0.00 0.00 0.01 0.00 0.00 0.01 0.02 0.02 0.01 0.02 0.02 0.04 0.05 0.05
0.07 0.08 0.07 0.03 0.03 0.02 0.02 0.02 0.01 0.01 0.01 0.02 0.02 0.01 0.01 0.02 0.02 0.02 0.02 0.02 0.01 0.01 0.01 0.01 0.01 0.00 0.00 0.00 0.00 0.00 0.01 0.01 0.01 0.00 0.00 0.01 0.02 0.02 0.01 0.02 0.02 0.03 0.03 0.04
0.06 0.06 0.04 0.03 0.04 0.05 0.03 0.01 0.01 0.00 0.00 0.00 0.01 0.00 0.01 0.01 0.01 0.01 0.01 0.01 0.01 0.01 0.01 0.01 0.00 0.00 0.00 0.00 0.01 0.01 0.01 0.01 0.01 0.00 0.00 0.01 0.02 0.02 0.02 0.02 0.02 0.02 0.03 0.03
0.06 0.05 0.04 0.04 0.03 0.06 0.07 0.04 0.02 0.00 0.00 0.01 0.01 0.02 0.02 0.02 0.01 0.01 0.01 0.01 0.00 0.01 0.01 0.01 0.01 0.01 0.00 0.01 0.01 0.01 0.01 0.01 0.01 0.01 0.00 0.01 0.02 0.02 0.02 0.02 0.02 0.02 0.02 0.03
0.04 0.04 0.05 0.04 0.03 0.03 0.04 0.03 0.01 0.00 0.01 0.02 0.02 0.03 0.02 0.02 0.02 0.02 0.02 0.01 0.00 0.01 0.01 0.01 0.01 0.01 0.01 0.01 0.01 0.02 0.02 0.01 0.01 0.00 0.01 0.01 0.02 0.03 0.03 0.02 0.02 0.02 0.02 0.01
0.03 0.02 0.02 0.02 0.02 0.02 0.03 0.02 0.00 0.00 0.01 0.02 0.03 0.05 0.04 0.03 0.03 0.02 0.02 0.01 0.01 0.01 0.01 0.01 0.01 0.01 0.00 0.01 0.02 0.02 0.01 0.01 0.01 0.01 0.01 0.02 0.03 0.04 0.04 0.03 0.02 0.02 0.02 0.02
0.02 0.02 0.03 0.02 0.02 0.01 0.01 0.01 0.00 0.00 0.01 0.01 0.02 0.03 0.04 0.03 0.02 0.02 0.01 0.01 0.01 0.01 0.01 0.01 0.00 0.00 0.00 0.00 0.02 0.02 0.01 0.01 0.01 0.01 0.02 0.02 0.03 0.03 0.03 0.03 0.02 0.02 0.02 0.02
0.02 0.02 0.02 0.02 0.02 0.01 0.01 0.00 0.00 0.01 0.01 0.01 0.01 0.01 0.01 0.01 0.01 0.01 0.01 0.01 0.01 0.01 0.01 0.00 0.00 0.00 0.00 0.01 0.01 0.01 0.01 0.01 0.01 0.01 0.02 0.02 0.02 0.03 0.03 0.03 0.03 0.02 0.03 0.03
0.03 0.02 0.01 0.01 0.02 0.01 0.01 0.01 0.01 0.01 0.01 0.01 0.01 0.01 0.01 0.01 0.01 0.01 0.01 0.01 0.01 0.01 0.01 0.01 0.01 0.01 0.01 0.01 0.02 0.01 0.01 0.01 0.01 0.01 0.01 0.02 0.02 0.03 0.04 0.04 0.04 0.04 0.04 0.04
0.03 0.02 0.01 0.01 0.01 0.01 0.01 0.01 0.01 0.02 0.01 0.01 0.01 0.01 0.01 0.01 0.02 0.01 0.01 0.01 0.01 0.01 0.01 0.02 0.01 0.01 0.01 0.01 0.01 0.01 0.01 0.01 0.00 0.00 0.01 0.02 0.02 0.03 0.05 0.06 0.05 0.05 0.05 0.06
0.02 0.01 0.01 0.01 0.01 0.01 0.01 0.01 0.01 0.01 0.01 0.01 0.01 0.01 0.01 0.01 0.02 0.02 0.02 0.02 0.02 0.03 0.02 0.02 0.01 0.01 0.01 0.01 0.01 0.01 0.01 0.01 0.00 0.00 0.01 0.01 0.01 0.02 0.04 0.06 0.06 0.05 0.05 0.04
0.01 0.01 0.02 0.01 0.01 0.01 0.01 0.01 0.01 0.01 0.01 0.01 0.02 0.02 0.02 0.02 0.03 0.03 0.03 0.03 0.03 0.03 0.03 0.02 0.01 0.01 0.01 0.01 0.01 0.01 0.01 0.01 0.00 0.00 0.01 0.01 0.01 0.02 0.03 0.04 0.05 0.04 0.05 0.04
0.01 0.01 0.02 0.01 0.01 0.01 0.01 0.01 0.00 0.01 0.01 0.01 0.02 0.03 0.03 0.04 0.04 0.05 0.05 0.05 0.04 0.04 0.03 0.02 0.01 0.01 0.01 0.01 0.01 0.01 0.01 0.01 0.01 0.00 0.01 0.01 0.01 0.02 0.02 0.02 0.04 0.04 0.04 0.04
0.01 0.01 0.01 0.01 0.01 0.01 0.01 0.01 0.01 0.01 0.01 0.01 0.02 0.03 0.04 0.04 0.04 0.05 0.05 0.05 0.03 0.03 0.02 0.01 0.01 0.01 0.01 0.01 0.01 0.00 0.01 0.01 0.01 0.01 0.01 0.01 0.01 0.01 0.01 0.01 0.02 0.04 0.04 0.04
0.01 0.01 0.01 0.01 0.01 0.01 0.01 0.01 0.01 0.01 0.01 0.01 0.01 0.02 0.03 0.03 0.04 0.04 0.04 0.04 0.03 0.04 0.02 0.01 0.01 0.01 0.01 0.01 0.00 0.00 0.01 0.01 0.01 0.01 0.01 0.01 0.01 0.02 0.02 0.02 0.02 0.02 0.03 0.04
0.01 0.01 0.01 0.01 0.01 0.01 0.01 0.01 0.01 0.01 0.01 0.01 0.01 0.01 0.01 0.01 0.01 0.02 0.01 0.01 0.02 0.03 0.02 0.02 0.02 0.02 0.01 0.01 0.01 0.01 0.01 0.01 0.01 0.01 0.01 0.01 0.01 0.02 0.02 0.02 0.02 0.02 0.03 0.03
0.01 0.01 0.01 0.01 0.01 0.01 0.01 0.01 0.01 0.01 0.01 0.01 0.01 0.01 0.01 0.01 0.01 0.01 0.01 0.01 0.02 0.02 0.02 0.02 0.02 0.02 0.01 0.01 0.01 0.01 0.01 0.01 0.01 0.01 0.01 0.01 0.01 0.01 0.02 0.02 0.02 0.02 0.02 0.02
0.01 0.01 0.01 0.01 0.01 0.01 0.01 0.01 0.01 0.01 0.01 0.00 0.01 0.01 0.01 0.01 0.01 0.01 0.01 0.01 0.01 0.01 0.01 0.01 0.01 0.01 0.01 0.01 0.01 0.01 0.01 0.01 0.01 0.01 0.01 0.01 0.01 0.01 0.02 0.02 0.02 0.02 0.02 0.03
0.02 0.02 0.02 0.02 0.02 0.01 0.01 0.01 0.01 0.01 0.01 0.00 0.00 0.01 0.01 0.01 0.01 0.01 0.01 0.01 0.01 0.01 0.01 0.01 0.01 0.01 0.01 0.01 0.01 0.02 0.02 0.02 0.02 0.02 0.01 0.01 0.01 0.01 0.01 0.02 0.01 0.01 0.02 0.02
0.01 0.02 0.01 0.01 0.01 0.01 0.01 0.01 0.01 0.00 0.01 0.01 0.01 0.01 0.01 0.01 0.01 0.01 0.01 0.01 0.01 0.01 0.01 0.01 0.01 0.00 0.01 0.01 0.01 0.01 0.01 0.02 0.01 0.01 0.01 0.01 0.01 0.02 0.02 0.02 0.02 0.02 0.03 0.03
MSLP
1001.59 1001.92 1002.17 1002.37 1002.55 1002.72 1002.91 1003.13 1003.36 1003.61 1003.87 1004.13 1004.39 1004.66 1004.94 1005.25 1005.58 1005.95 1006.37 1006.82 1007.30 1007.80 1008.29 1008.77 1009.20 1009.59 1009.91 1010.15 1010.32 1010.41 1010.43 1010.39 1010.30 1010.16 1010.01 1009.85 1009.68 1009.53 1009.39 1009.27 1009.18 1009.11 1009.08 1009.08
1001.80 1002.12 1002.27 1002.28 1002.20 1002.10 1002.03 1002.03 1002.14 1002.37 1002.70 1003.14 1003.64 1004.18 1004.73 1005.27 1005.77 1006.25 1006.69 1007.10 1007.50 1007.90 1008.30 1008.69 1009.06 1009.42 1009.73 1009.97 1010.14 1010.22 1010.21 1010.12 1009.95 1009.74 1009.51 1009.27 1009.05 1008.87 1008.72 1008.62 1008.57 1008.54 1008.56 1008.59
1001.94 1002.24 1002.30 1002.15 1001.87 1001.53 1001.24 1001.06 1001.05 1001.24 1001.63 1002.20 1002.90 1003.66 1004.44 1005.17 1005.83 1006.40 1006.87 1007.27 1007.62 1007.94 1008.26 1008.58 1008.92 1009.25 1009.55 1009.80 1009.96 1010.03 1009.98 1009.83 1009.60 1009.31 1008.99 1008.67 1008.39 1008.17 1008.02 1007.93 1007.90 1007.92 1007.98 1008.05
1001.95 1002.23 1002.21 1001.93 1001.49 1000.98 1000.51 1000.20 1000.10 1000.26 1000.69 1001.35 1002.19 1003.12 1004.06 1004.94 1005.72 1006.36 1006.87 1007.26 1007.58 1007.85 1008.12 1008.41 1008.71 1009.03 1009.33 1009.58 1009.74 1009.79 1009.71 1009.52 1009.22 1008.85 1008.45 1008.07 1007.73 1007.47 1007.30 1007.21 1007.20 1007.26 1007.35 1007.47
1001.80 1002.03 1001.94 1001.58 1001.03 1000.41 999.85 999.45 999.30 999.45 999.90 1000.62 1001.54 1002.58 1003.63 1004.61 1005.46 1006.16 1006.69 1007.08 1007.37 1007.62 1007.85 1008.11 1008.40 1008.71 1009.01 1009.26 1009.42 1009.46 1009.37 1009.14 1008.80 1008.38 1007.93 1007.49 1007.10 1006.81 1006.61 1006.52 1006.53 1006.60 1006.73 1006.88
1001.46 1001.62 1001.48 1001.08 1000.49 999.84 999.25 998.83 998.68 998.83 999.30 1000.06 1001.03 1002.11 1003.21 1004.24 1005.12 1005.84 1006.37 1006.75 1007.03 1007.25 1007.46 1007.70 1007.97 1008.27 1008.57 1008.82 1008.99 1009.04 1008.95 1008.72 1008.37 1007.92 1007.44 1006.97 1006.56 1006.24 1006.03 1005.93 1005.93 1006.02 1006.15 1006.33
1000.93 1001.03 1000.86 1000.46 999.90 999.30 998.76 998.39 998.27 998.46 998.96 999.74 1000.72 1001.81 1002.90 1003.92 1004.80 1005.49 1006.01 1006.37 1006.62 1006.81 1006.99 1007.21 1007.46 1007.75 1008.04 1008.30 1008.48 1008.54 1008.47 1008.26 1007.92 1007.50 1007.02 1006.55 1006.14 1005.81 1005.59 1005.48 1005.47 1005.55 1005.69 1005.87
1000.25 1000.30 1000.14 999.80 999.34 998.85 998.43 998.17 998.15 998.40 998.94 999.72 1000.68 1001.74 1002.79 1003.76 1004.59 1005.24 1005.71 1006.03 1006.24 1006.39 1006.54 1006.72 1006.94 1007.20 1007.48 1007.73 1007.92 1008.00 1007.96 1007.79 1007.50 1007.12 1006.69 1006.26 1005.86 1005.54 1005.32 1005.20 1005.18 1005.25 1005.38 1005.55
999.51 999.54 999.43 999.20 998.89 998.57 998.33 998.23 998.34 998.68 999.26 1000.04 1000.97 1001.96 1002.94 1003.83 1004.58 1005.16 1005.57 1005.83 1005.99 1006.10 1006.20 1006.33 1006.50 1006.71 1006.95 1007.18 1007.37 1007.46 1007.46 1007.34 1007.11 1006.80 1006.44 1006.06 1005.71 1005.42 1005.22 1005.09 1005.06 1005.10 1005.22 1005.37
998.80 998.86 998.84 998.76 998.65 998.55 998.52 998.61 998.86 999.30 999.92 1000.69 1001.57 1002.49 1003.37 1004.16 1004.82 1005.32 1005.66 1005.86 1005.96 1006.01 1006.05 1006.11 1006.22 1006.36 1006.54 1006.73 1006.88 1006.98 1007.00 1006.92 1006.76 1006.53 1006.24 1005.94 1005.65 1005.40 1005.22 1005.10 1005.06 1005.09 1005.18 1005.33
998.24 998.37 998.49 998.59 998.70 998.84 999.03 999.31 999.71 1000.24 1000.89 1001.64 1002.45 1003.27 1004.05 1004.73 1005.29 1005.71 1005.98 1006.12 1006.16 1006.16 1006.13 1006.12 1006.14 1006.20 1006.29 1006.40 1006.50 1006.57 1006.58 1006.54 1006.42 1006.26 1006.05 1005.82 1005.60 1005.40 1005.25 1005.15 1005.12 1005.14 1005.22 1005.35
997.94 998.18 998.45 998.76 999.09 999.44 999.84 1000.30 1000.82 1001.41 1002.06 1002.77 1003.50 1004.22 1004.89 1005.47 1005.94 1006.28 1006.49 1006.58 1006.58 1006.53 1006.44 1006.35 1006.28 1006.24 1006.22 1006.23 1006.24 1006.24 1006.22 1006.17 1006.08 1005.95 1005.80 1005.64 1005.48 1005.34 1005.23 1005.16 1005.14 1005.16 1005.24 1005.37
997.96 998.32 998.76 999.25 999.78 1000.33 1000.89 1001.47 1002.07 1002.68 1003.32 1003.97 1004.60 1005.22 1005.78 1006.26 1006.65 1006.93 1007.10 1007.17 1007.15 1007.05 1006.91 1006.75 1006.59 1006.43 1006.30 1006.18 1006.08 1005.99 1005.90 1005.81 1005.71 1005.60 1005.48 1005.36 1005.25 1005.16 1005.09 1005.05 1005.05 1005.10 1005.19 1005.34
998.30 998.79 999.38 1000.03 1000.71 1001.40 1002.07 1002.72 1003.35 1003.95 1004.53 1005.10 1005.63 1006.13 1006.59 1007.00 1007.33 1007.57 1007.73 1007.78 1007.75 1007.64 1007.47 1007.25 1007.00 1006.74 1006.48 1006.24 1006.01 1005.81 1005.63 1005.46 1005.32 1005.19 1005.08 1004.98 1004.90 1004.84 1004.81 1004.81 1004.84 1004.91 1005.03 1005.19
998.94 999.55 1000.26 1001.02 1001.79 1002.56 1003.28 1003.94 1004.55 1005.10 1005.60 1006.06 1006.49 1006.89 1007.26 1007.60 1007.88 1008.11 1008.27 1008.34 1008.32 1008.21 1008.02 1007.76 1007.45 1007.10 1006.73 1006.36 1006.01 1005.69 1005.40 1005.15 1004.95 1004.78 1004.65 1004.55 1004.48 1004.44 1004.43 1004.45 1004.51 1004.60 1004.74 1004.93
999.80 1000.50 1001.27 1002.09 1002.91 1003.69 1004.41 1005.04 1005.59 1006.06 1006.46 1006.82 1007.14 1007.45 1007.74 1008.02 1008.28 1008.50 1008.67 1008.77 1008.77 1008.68 1008.50 1008.22 1007.86 1007.44 1006.99 1006.52 1006.07 1005.64 1005.26 1004.92 1004.65 1004.43 1004.26 1004.14 1004.06 1004.02 1004.01 1004.04 1004.11 1004.22 1004.37 1004.56
1000.80 1001.53 1002.33 1003.15 1003.96 1004.71 1005.37 1005.94 1006.41 1006.79 1007.09 1007.35 1007.58 1007.81 1008.04 1008.28 1008.52 1008.75 1008.93 1009.05 1009.09 1009.03 1008.86 1008.58 1008.20 1007.75 1007.25 1006.71 1006.18 1005.68 1005.22 1004.82 1004.48 1004.21 1004.00 1003.85 1003.74 1003.68 1003.65 1003.66 1003.72 1003.81 1003.95 1004.13
1001.84 1002.56 1003.34 1004.11 1004.86 1005.55 1006.14 1006.63 1007.01 1007.30 1007.52 1007.70 1007.86 1008.02 1008.21 1008.42 1008.64 1008.87 1009.07 1009.21 1009.28 1009.24 1009.09 1008.83 1008.46 1008.00 1007.47 1006.92 1006.35 1005.81 1005.31 1004.87 1004.49 1004.18 1003.93 1003.74 1003.59 1003.48 1003.41 1003.38 1003.39 1003.44 1003.54 1003.68
1002.84 1003.51 1004.21 1004.92 1005.59 1006.19 1006.70 1007.11 1007.43 1007.65 1007.81 1007.93 1008.04 1008.16 1008.31 1008.49 1008.70 1008.92 1009.12 1009.27 1009.35 1009.33 1009.20 1008.96 1008.61 1008.17 1007.66 1007.11 1006.56 1006.02 1005.52 1005.06 1004.67 1004.34 1004.06 1003.82 1003.63 1003.47 1003.34 1003.24 1003.17 1003.15 1003.17 1003.24
1003.74 1004.33 1004.94 1005.55 1006.14 1006.66 1007.10 1007.45 1007.70 1007.89 1008.01 1008.10 1008.18 1008.28 1008.41 1008.57 1008.75 1008.95 1009.13 1009.27 1009.34 1009.32 1009.21 1008.98 1008.66 1008.25 1007.78 1007.28 1006.76 1006.25 1005.78 1005.35 1004.96 1004.63 1004.33 1004.06 1003.82 1003.60 1003.40 1003.22 1003.07 1002.95 1002.88 1002.86
1004.52 1005.01 1005.53 1006.05 1006.54 1006.99 1007.37 1007.68 1007.92 1008.08 1008.20 1008.28 1008.36 1008.44 1008.55 1008.69 1008.84 1008.99 1009.14 1009.24 1009.28 1009.25 1009.12 1008.91 1008.61 1008.24 1007.81 1007.36 1006.90 1006.45 1006.02 1005.63 1005.28 1004.95 1004.65 1004.37 1004.09 1003.82 1003.55 1003.29 1003.04 1002.82 1002.65 1002.52
1005.20 1005.59 1006.01 1006.44 1006.86 1007.26 1007.60 1007.89 1008.11 1008.28 1008.41 1008.50 1008.58 1008.66 1008.75 1008.85 1008.96 1009.07 1009.15 1009.20 1009.19 1009.12 1008.97 1008.75 1008.45 1008.11 1007.72 1007.32 1006.92 1006.53 1006.16 1005.82 1005.51 1005.21 1004.92 1004.62 1004.32 1004.01 1003.69 1003.36 1003.04 1002.74 1002.47 1002.24
1005.79 1006.10 1006.44 1006.80 1007.16 1007.51 1007.83 1008.11 1008.34 1008.52 1008.66 1008.77 1008.86 1008.93 1009.00 1009.07 1009.13 1009.17 1009.18 1009.16 1009.09 1008.96 1008.76 1008.51 1008.21 1007.88 1007.52 1007.15 1006.79 1006.45 1006.14 1005.84 1005.57 1005.30 1005.03 1004.74 1004.44 1004.11 1003.76 1003.39 1003.02 1002.65 1002.32 1002.02
1006.35 1006.59 1006.86 1007.17 1007.49 1007.81 1008.12 1008.39 1008.63 1008.82 1008.98 1009.10 1009.18 1009.25 1009.29 1009.31 1009.32 1009.29 1009.23 1009.14 1008.99 1008.79 1008.54 1008.25 1007.92 1007.57 1007.22 1006.86 1006.53 1006.22 1005.94 1005.67 1005.43 1005.19 1004.94 1004.67 1004.38 1004.06 1003.71 1003.33 1002.94 1002.55 1002.18 1001.85
1006.91 1007.11 1007.35 1007.62 1007.91 1008.20 1008.49 1008.76 1008.99 1009.19 1009.34 1009.46 1009.54 1009.58 1009.60 1009.58 1009.53 1009.44 1009.31 1009.14 1008.92 1008.66 1008.35 1008.00 1007.63 1007.26 1006.88 1006.52 1006.18 1005.87 1005.60 1005.35 1005.12 1004.90 1004.68 1004.44 1004.17 1003.87 1003.54 1003.19 1002.82 1002.44 1002.07 1001.72
1007.51 1007.70 1007.92 1008.16 1008.43 1008.70 1008.97 1009.22 1009.43 1009.62 1009.76 1009.86 1009.92 1009.94 1009.92 1009.87 1009.77 1009.63 1009.44 1009.21 1008.93 1008.60 1008.24 1007.84 1007.42 1007.00 1006.59 1006.20 1005.83 1005.51 1005.22 1004.96 1004.73 1004.52 1004.31 1004.09 1003.86 1003.59 1003.31 1002.99 1002.66 1002.31 1001.96 1001.63
1008.18 1008.37 1008.58 1008.82 1009.06 1009.31 1009.55 1009.76 1009.95 1010.10 1010.21 1010.28 1010.32 1010.31 1010.26 1010.18 1010.04 1009.87 1009.64 1009.36 1009.04 1008.67 1008.26 1007.81 1007.35 1006.88 1006.43 1005.99 1005.58 1005.22 1004.90 1004.61 1004.37 1004.15 1003.94 1003.74 1003.53 1003.31 1003.06 1002.79 1002.50 1002.19 1001.87 1001.55
Thickness
5754 5765 5768 5765 5768 5772 5768 5764 5754 5755 5758 5761 5762 5760 5757 5756 5752 5747 5742 5738 5732 5727 5724 5719 5715 5712 5709 5706 5703 5700 5695 5691 5687 5685 5682 5680 5677 5674 5672 5670 5668 5665 5663 5661
5743 5758 5763 5760 5764 5768 5767 5767 5763 5761 5756 5766 5767 5763 5755 5751 5745 5739 5736 5732 5728 5723 5719 5713 5710 5707 5704 5700 5698 5695 5690 5686 5683 5680 5677 5675 5672 5670 5667 5665 5662 5661 5659 5656
5726 5747 5748 5742 5760 5765 5766 5766 5762 5751 5753 5760 5755 5751 5748 5746 5743 5738 5732 5727 5723 5718 5714 5709 5705 5702 5698 5695 5693 5689 5685 5681 5679 5675 5672 5669 5668 5665 5662 5659 5657 5655 5653 5651
5722 5726 5712 5746 5774 5773 5765 5761 5761 5756 5754 5752 5748 5745 5744 5742 5737 5732 5728 5722 5718 5713 5709 5705 5702 5697 5694 5691 5687 5684 5680 5677 5674 5671 5668 5665 5662 5660 5657 5654 5651 5649 5647 5646
5715 5713 5723 5744 5758 5761 5752 5744 5752 5748 5746 5746 5744 5737 5732 5734 5731 5727 5723 5718 5714 5710 5705 5700 5696 5692 5688 5685 5681 5678 5675 5672 5670 5667 5663 5660 5657 5654 5652 5649 5646 5644 5642 5641
5714 5705 5704 5727 5748 5758 5748 5727 5741 5742 5737 5735 5732 5717 5715 5723 5722 5720 5717 5713 5708 5705 5700 5694 5690 5687 5682 5678 5675 5672 5671 5669 5667 5663 5659 5655 5652 5650 5647 5644 5642 5640 5639 5637
5706 5703 5713 5729 5741 5742 5714 5707 5727 5730 5727 5725 5718 5713 5713 5714 5711 5709 5706 5704 5701 5697 5692 5687 5684 5681 5675 5672 5669 5669 5667 5664 5661 5658 5654 5651 5648 5646 5642 5640 5638 5636 5634 5633
5702 5693 5697 5724 5726 5714 5708 5718 5721 5720 5717 5714 5710 5709 5707 5704 5701 5699 5697 5695 5692 5688 5684 5681 5678 5674 5669 5666 5666 5664 5661 5658 5655 5652 5650 5648 5644 5641 5639 5635 5633 5631 5629 5627
5700 5696 5706 5714 5711 5712 5715 5711 5713 5713 5711 5708 5704 5700 5697 5694 5692 5691 5689 5687 5685 5681 5677 5674 5672 5668 5663 5661 5661 5658 5655 5652 5649 5646 5644 5642 5638 5635 5633 5631 5628 5626 5624 5621
5694 5694 5700 5704 5706 5707 5708 5705 5706 5706 5705 5702 5697 5693 5690 5687 5685 5683 5682 5679 5677 5674 5669 5666 5665 5663 5660 5658 5656 5652 5648 5645 5643 5640 5638 5636 5633 5631 5628 5625 5622 5620 5617 5614
5683 5685 5689 5693 5696 5697 5698 5697 5695 5696 5696 5693 5690 5686 5683 5680 5678 5676 5674 5672 5670 5666 5662 5660 5659 5658 5656 5653 5650 5645 5642 5639 5637 5636 5634 5631 5628 5624 5621 5618 5615 5612 5611 5608
5668 5674 5674 5676 5684 5688 5685 5684 5685 5685 5684 5683 5681 5677 5676 5673 5671 5669 5667 5665 5662 5659 5657 5655 5654 5651 5650 5648 5644 5639 5635 5633 5632 5630 5628 5625 5622 5618 5614 5611 5608 5605 5603 5601
5669 5672 5672 5673 5675 5675 5674 5675 5677 5676 5674 5672 5672 5669 5666 5664 5663 5661 5659 5657 5655 5653 5650 5649 5647 5645 5644 5642 5638 5633 5630 5628 5627 5625 5622 5619 5616 5612 5608 5605 5601 5599 5597 5595
5664 5663 5659 5661 5662 5665 5666 5666 5667 5667 5666 5664 5662 5660 5657 5654 5653 5651 5651 5651 5649 5647 5644 5642 5640 5638 5637 5635 5632 5628 5625 5623 5621 5618 5616 5613 5610 5608 5605 5601 5598 5596 5593 5590
5651 5651 5650 5652 5653 5654 5655 5655 5655 5653 5653 5652 5651 5649 5646 5644 5642 5642 5643 5643 5641 5638 5636 5634 5631 5630 5630 5629 5626 5622 5620 5618 5616 5613 5611 5608 5606 5604 5602 5599 5596 5593 5591 5587
5639 5641 5641 5641 5641 5643 5643 5642 5641 5641 5641 5641 5639 5638 5637 5636 5635 5634 5633 5632 5629 5627 5625 5624 5622 5622 5623 5621 5618 5616 5615 5611 5608 5607 5605 5603 5601 5599 5597 5594 5593 5591 5588 5586
5626 5626 5627 5628 5629 5630 5631 5632 5632 5632 5632 5631 5630 5629 5628 5627 5625 5623 5622 5622 5620 5618 5617 5615 5614 5615 5614 5613 5611 5610 5610 5608 5603 5601 5599 5597 5595 5593 5591 5590 5589 5587 5585 5583
5619 5619 5620 5620 5621 5621 5622 5623 5623 5622 5622 5622 5621 5620 5618 5615 5613 5612 5612 5611 5610 5609 5608 5608 5607 5606 5606 5605 5603 5603 5602 5602 5600 5597 5595 5592 5590 5588 5587 5586 5585 5583 5582 5580
5611 5611 5612 5612 5613 5612 5612 5612 5613 5612 5612 5612 5611 5609 5608 5606 5605 5604 5603 5601 5599 5598 5599 5600 5597 5597 5598 5596 5594 5596 5596 5595 5594 5593 5590 5587 5585 5584 5583 5582 5581 5579 5578 5577
5602 5603 5604 5603 5604 5603 5602 5603 5603 5603 5602 5602 5601 5600 5598 5597 5596 5595 5594 5592 5591 5591 5592 5591 5591 5590 5590 5590 5587 5589 5590 5589 5588 5587 5586 5584 5582 5580 5579 5578 5577 5575 5574 5573
5592 5593 5594 5594 5593 5594 5594 5594 5593 5592 5592 5592 5591 5589 5588 5587 5587 5586 5585 5584 5583 5583 5583 5583 5583 5583 5582 5580 5580 5583 5584 5583 5582 5581 5580 5579 5577 5576 5575 5574 5573 5571 5570 5569
5583 5584 5585 5585 5584 5584 5584 5585 5584 5583 5582 5582 5581 5581 5580 5579 5579 5578 5578 5576 5576 5574 5575 5578 5577 5574 5573 5572 5576 5578 5578 5577 5576 5575 5574 5573 5573 5572 5571 5570 5569 5568 5566 5565
5575 5576 5576 5576 5575 5575 5575 5575 5575 5574 5574 5573 5573 5573 5573 5572 5572 5571 5569 5569 5570 5567 5567 5569 5567 5565 5564 5566 5570 5571 5571 5571 5570 5569 5569 5568 5568 5567 5567 5566 5565 5564 5562 5561
5566 5567 5567 5567 5567 5566 5566 5566 5567 5567 5567 5567 5566 5566 5565 5564 5564 5565 5563 5561 5560 5559 5561 5561 5558 5558 5557 5561 5563 5565 5565 5564 5564 5564 5564 5564 5564 5563 5562 5561 5560 5560 5559 5557
5557 5558 5558 5558 5557 5557 5557 5558 5559 5558 5558 5559 5558 5558 5559 5558 5557 5557 5557 5556 5554 5554 5555 5555 5553 5553 5554 5556 5558 5558 5559 5559 5559 5558 5558 5559 5559 5559 5557 5556 5555 5555 5553 5552
5549 5549 5549 5549 5549 5549 5550 5551 5550 5549 5550 5550 5550 5550 5550 5550 5550 5550 5549 5550 5550 5548 5550 5552 5552 5550 5552 5553 5552 5553 5553 5554 5554 5553 5554 5554 5553 5552 5552 5551 5550 5549 5548 5547
5542 5542 5542 5542 5543 5543 5543 5543 5542 5542 5542 5540 5540 5541 5542 5542 5542 5542 5542 5543 5543 5544 5545 5546 5547 5548 5548 5548 5548 5549 5549 5548 5548 5548 5548 5548 5547 5546 5546 5545 5544 5543 5542 5541